Location: Krakow
(50.0212°N, 19.9423°E)
Time: 21:48:55
(UTC+02:00)

NOAA 18 - Pass Details

Date: 17 August 2024
Orbit: 837 x 859 km, 98.9° (Epoch: 19 September)

Event Time Altitude Azimuth Distance (km) Brightness Sun altitude
Exits shadow 23:09:43 39° 209° (SSW) 1,260 5.8 -23.6°
Maximum altitude 23:11:24 53° 260° (W) 1,047 5.7 -23.7°
Drops below altitude 10° 23:16:51 10° 337° (NNW) 2,506 8.7 -24.1°
Sets 23:19:18 0° 342° (NNW) 3,447 9.8 -24.2°
